Location: Unspecified
(0.0000°N, 0.0000°E)
Time: 07:22:56
(UTC+00:00)

Tiangong 2 - Pass Details

Date: 13 January 2018
Orbit: 384 x 392 km, 42.8° (Epoch: 23 October)

Event Time Altitude Azimuth Distance (km) Brightness Sun altitude
Exits shadow 05:31:39 12° 293° (WNW) 1,322 3.1 -8.6°
Maximum altitude 05:32:47 13° 316° (NW) 1,235 3.1 -8.3°
Drops below altitude 10° 05:34:26 10° 347° (NNW) 1,420 3.6 -7.9°
Sets 05:37:20 0° 16° (NNE) 2,279 4.9 -7.3°
